This is the latest recevied weather packets stored in our database for station/object K7LDN-13. If no packets are shown the sender has not sent any weather packets the latest 10 day(s).
| Time | Temp. | Humidity | Pressure | Rain* | Wind** | Luminosity | Snow |
|---|---|---|---|---|---|---|---|
| 1777865582 | 18.89° C | 24% | 1013.1 hPa | 0 mm | - | 0 W/m² | - |
| 1777865278 | 18.89° C | 24% | 1012.8 hPa | 0 mm | - | 0 W/m² | - |
| 1777864975 | 18.89° C | 24% | 1012.8 hPa | 0 mm | - | 0 W/m² | - |
| 1777864672 | 18.89° C | 24% | 1012.7 hPa | 0 mm | - | 0 W/m² | - |
| 1777864369 | 18.89° C | 23% | 1012.8 hPa | 0 mm | - | 0 W/m² | - |
| 1777864065 | 18.89° C | 24% | 1012.7 hPa | 0 mm | - | 0 W/m² | - |
| 1777863763 | 18.89° C | 25% | 1013 hPa | 0 mm | - | 0 W/m² | - |
| 1777863459 | 18.89° C | 26% | 1013 hPa | 0 mm | - | 0 W/m² | - |
| 1777863156 | 19.44° C | 25% | 1012.7 hPa | 0 mm | - | 0 W/m² | - |
| 1777862853 | 20° C | 24% | 1012.8 hPa | 0 mm | - | 0 W/m² | - |
| 1777862549 | 19.44° C | 23% | 1013 hPa | 0 mm | - | 0 W/m² | - |
| 1777862246 | 20° C | 23% | 1012.7 hPa | 0 mm | - | 0 W/m² | - |
| 1777861942 | 20° C | 23% | 1012.5 hPa | 0 mm | - | 1 W/m² | - |
| 1777861638 | 20° C | 22% | 1012.7 hPa | 0 mm | - | 2 W/m² | - |
| 1777861335 | 20.56° C | 23% | 1012.5 hPa | 0 mm | - | 3 W/m² | - |
| 1777861032 | 20.56° C | 22% | 1012.7 hPa | 0 mm | - | 4 W/m² | - |
| 1777860729 | 20.56° C | 22% | 1012.7 hPa | 0 mm | - | 5 W/m² | - |
| 1777860426 | 20.56° C | 23% | 1012.6 hPa | 0 mm | - | 8 W/m² | - |
| 1777860122 | 21.11° C | 22% | 1012.7 hPa | 0 mm | - | 11 W/m² | - |
| 1777859819 | 21.11° C | 21% | 1012.6 hPa | 0 mm | - | 14 W/m² | - |
| 1777859515 | 21.67° C | 21% | 1012.7 hPa | 0 mm | - | 19 W/m² | - |
| 1777859210 | 21.67° C | 21% | 1012.7 hPa | 0 mm | - | 23 W/m² | - |
| 1777858908 | 21.67° C | 20% | 1012.7 hPa | 0 mm | - | 27 W/m² | - |
| 1777858606 | 21.67° C | 20% | 1012.8 hPa | 0 mm | - | 32 W/m² | - |
| 1777858302 | 21.67° C | 19% | 1012.8 hPa | 0 mm | - | 38 W/m² | - |
* Rain latest hour (hover to see other rain measurements)
** Current wind speed in m/s (hover to see current wind gust speed)